[[{"header":{"parameterUnit":"m.s-1","parameterCategory":1,"la1":30.2991,"la2":30.254,"lo1":-89.0895,"lo2":-89.0444,"dy":0.0017,"dx":0.0017,"nx":28,"ny":28,"refTime":"2024-02-27T09:00:00:Z","depth":0,"parameterNumber":2,"parameterNumberName":"U-component_of_WINDS"},"data":[0,0,0,0,0,0,0,0,0,0,0,0,0,0,0,0,0,0,0,0,0,0,0,0,0,0,0,0,0,0,0,0,0,0,0,0,0,0,0,0,0,0,0,0,0,0,0,0,0,0,0,0,0,0,0,0,0,0,0.6749,0.6748,0,0.6647,0.6646,0.6645,0.6561,0.656,0.656,0.6559,0.6456,0.6455,0.6453,0,0,0,0,0,0,0,0,0,0,0,0,0,0.6872,0.687,0.6749,0.6748,0.6747,0.6647,0.6646,0.6645,0.6561,0.656,0.6559,0.6558,0.6457,0.6455,0.6453,0,0,0,0,0,0,0,0,0,0,0,0,0,0.6799,0.6869,0.6749,0.6693,0.6687,0.6648,0.6646,0.6644,0.6562,0.656,0.6559,0.6558,0.6458,0.6455,0.6452,0.6461,0,0,0.6444,0.6442,0,0,0,0,0,0,0,0,0.6803,0.6795,0.6703,0.6697,0.669,0.6616,0.6652,0.6583,0.6562,0.6609,0.6559,0.6557,0.6511,0.6503,0.6487,0.6456,0.6452,0.6443,0.6442,0.644,0.644,0,0,0,0,0,0,0,0.6808,0.6799,0.6709,0.6701,0.6694,0.6673,0.6661,0.6638,0.6569,0.6605,0.6599,0.6588,0.6507,0.649,0.6484,0.645,0.6443,0.6441,0.6439,0.6438,0.642,0.6422,0,0,0,0,0,0,0.6822,0.6803,0.6712,0.6706,0.6745,0.6672,0.6659,0.6641,0.6569,0.6556,0.6589,0.6584,0.6496,0.6488,0.648,0.6485,0.644,0.6438,0.6436,0.6419,0.6421,0.6422,0,0,0,0,0,0,0.6825,0.6815,0.6716,0.6753,0.6739,0.6671,0.6652,0.664,0.6623,0.6556,0.6544,0.6585,0.6494,0.6484,0.6466,0.6481,0.6436,0.6434,0.6418,0.642,0.6421,0.6496,0,0,0,0,0,0,0.6829,0.6816,0.6819,0.6753,0.6737,0.6704,0.6653,0.6639,0.6618,0.6611,0.6549,0.6538,0.6492,0.6471,0.6463,0.6476,0.6432,0.6416,0.6419,0.6421,0.6492,0.65,0.6507,0,0,0,0,0,0.6834,0.6845,0.682,0.6809,0.6739,0.6705,0.6695,0.6643,0.6619,0.6621,0.6579,0.654,0.648,0.647,0.646,0.6472,0.6415,0.6418,0.6421,0.6489,0.6499,0.6507,0,0,0,0,0,0,0.6915,0.6835,0.6807,0.6797,0.6758,0.6691,0.6692,0.6655,0.6623,0.6618,0.6554,0.6541,0.653,0.6499,0.6489,0.6476,0.6442,0.6443,0.6497,0.6506,0.6514,0.6521,0.6429,0,0,0,0,0,0.6931,0.691,0.6842,0.684,0.6822,0.676,0.6744,0.6706,0.6664,0.6647,0.6603,0.6564,0.6536,0.6519,0.649,0.6487,0.6472,0.649,0.6498,0.6505,0.6506,0.6501,0.6509,0.6431,0.6431,0.6431,0,0,0.6966,0.692,0.691,0.6855,0.6821,0.68,0.6747,0.6728,0.6712,0.6644,0.6624,0.659,0.6542,0.6531,0.6524,0.6506,0.6524,0.6508,0.6514,0.6512,0.6505,0.6513,0.6519,0.6433,0.6433,0.6432,0,0,0.7018,0.6981,0.6975,0.6941,0.6889,0.6848,0.6847,0.6785,0.6759,0.6738,0.6686,0.6666,0.662,0.6588,0.6565,0.6603,0.6566,0.6596,0.6636,0.6632,0.6638,0.6643,0.6656,0.6662,0.6598,0.6598,0.6598,0,0.7068,0.7034,0.6977,0.696,0.6937,0.6873,0.6866,0.6837,0.6779,0.6764,0.6743,0.6683,0.6646,0.6626,0.6636,0.662,0.6616,0.6603,0.6642,0.6646,0.665,0.6662,0.6667,0.6602,0.6601,0.6601,0.66,0,0.7098,0.7075,0.7076,0.7021,0.6997,0.6986,0.6926,0.691,0.6874,0.6835,0.6814,0.6767,0.6727,0.6719,0.6685,0.6694,0.6684,0.6653,0.6618,0.6662,0.6672,0.6677,0.6607,0.6606,0.6605,0.6604,0,0,0.7199,0.7111,0.7112,0.7086,0.7023,0.7005,0.699,0.695,0.6937,0.6898,0.6884,0.6845,0.6816,0.6791,0.6752,0.6748,0.6781,0.6718,0.6715,0.6731,0.6788,0.6811,0.6818,0.6755,0.6756,0.6756,0.6792,0,0.7241,0.7211,0.7158,0.7145,0.7123,0.7061,0.7048,0.7009,0.6972,0.6948,0.6906,0.688,0.6844,0.6828,0.6821,0.6778,0.6791,0.6775,0.6742,0.6741,0.6756,0.6823,0.6848,0.6884,0.6795,0.6796,0.6796,0,0.7287,0.7251,0.7235,0.7173,0.7162,0.7151,0.7109,0.7087,0.7041,0.7014,0.6985,0.6941,0.6922,0.6889,0.6862,0.6852,0.6835,0.6812,0.6812,0.6807,0.6772,0.682,0.6894,0.6899,0.6802,0.6802,0.6801,0,0.7362,0.731,0.7294,0.7273,0.72,0.7194,0.7163,0.7115,0.7094,0.7058,0.7043,0.7005,0.6985,0.6957,0.6904,0.6885,0.6882,0.6845,0.686,0.6861,0.6862,0.6863,0.6935,0.6852,0.6851,0.6851,0.6851,0,0.7415,0.7408,0.7326,0.7317,0.7306,0.7245,0.7237,0.7201,0.7158,0.714,0.7085,0.7069,0.7,0.6976,0.6935,0.6919,0.691,0.6888,0.6877,0.6893,0.6896,0.6881,0.6877,0.6853,0.6852,0.6852,0.6852,0,0.7498,0.7443,0.7421,0.7354,0.7336,0.7332,0.7274,0.7262,0.7221,0.7198,0.7189,0.7125,0.7094,0.7039,0.6992,0.6964,0.6956,0.6937,0.6972,0.6965,0.6983,0.6982,0.7048,0.7053,0.6967,0.6968,0.6969,0,0.7536,0.7528,0.746,0.7443,0.7414,0.7389,0.7366,0.7306,0.7285,0.723,0.7225,0.7189,0.7157,0.711,0.706,0.7023,0.7003,0.7029,0.6998,0.7014,0.7004,0.7005,0.7004,0.7036,0.7038,0.7039,0.704,0,0.7608,0.758,0.755,0.7511,0.7485,0.7451,0.7414,0.7404,0.7335,0.7314,0.7281,0.7256,0.7208,0.7173,0.7129,0.7098,0.7057,0.7049,0.7051,0.7067,0.7087,0.7076,0.6991,0.7048,0.7048,0.7047,0.7046,0.7046,0.7668,0.7659,0.7609,0.7577,0.7542,0.7509,0.7494,0.745,0.7422,0.7377,0.7343,0.7312,0.7265,0.7201,0.7172,0.7147,0.7129,0.7131,0.7131,0.7133,0.7139,0.7091,0.7139,0.7139,0.7139,0.7138,0.7138,0,0.7737,0.7702,0.7673,0.7623,0.7597,0.756,0.7517,0.7499,0.7472,0.7431,0.74,0.7362,0.7328,0.7274,0.7235,0.7226,0.7206,0.7218,0.7218,0.7211,0.7158,0.7161,0.7234,0.7234,0.7234,0.7234,0.7234,0.7234,0.777,0.7752,0.7719,0.7683,0.7647,0.7616,0.7595,0.7563,0.753,0.7489,0.746,0.7425,0.7378,0.7335,0.7302,0.7287,0.7276,0.7293,0.7272,0.7224,0.7215,0.7207,0.7209,0.7291,0.7291,0.7327,0.7328,0.7328]},{"header":{"parameterUnit":"m.s-1","parameterCategory":1,"la1":30.2991,"la2":30.254,"lo1":-89.0895,"lo2":-89.0444,"dy":0.0017,"dx":0.0017,"nx":28,"ny":28,"refTime":"2024-02-27T09:00:00:Z","depth":0,"parameterNumber":3,"parameterNumberName":"V-component_of_WINDS"},"data":[0,0,0,0,0,0,0,0,0,0,0,0,0,0,0,0,0,0,0,0,0,0,0,0,0,0,0,0,0,0,0,0,0,0,0,0,0,0,0,0,0,0,0,0,0,0,0,0,0,0,0,0,0,0,0,0,0,0,6.0574,6.0575,0,6.0674,6.0676,6.0677,6.0667,6.0665,6.0664,6.0662,6.0761,6.0765,6.0769,0,0,0,0,0,0,0,0,0,0,0,0,0,6.0369,6.0373,6.0574,6.0575,6.0576,6.0674,6.0676,6.0677,6.0667,6.0665,6.0663,6.0661,6.0759,6.0764,6.0769,0,0,0,0,0,0,0,0,0,0,0,0,0,6.0463,6.0374,6.0573,6.0583,6.0585,6.0674,6.0676,6.0677,6.0667,6.0665,6.0663,6.0661,6.0758,6.0764,6.077,6.0854,0,0,6.0788,6.0791,0,0,0,0,0,0,0,0,6.0457,6.047,6.058,6.0583,6.0585,6.0656,6.064,6.0736,6.0668,6.0636,6.0662,6.0659,6.0727,6.0736,6.076,6.0859,6.0863,6.0789,6.0793,6.0795,6.0797,0,0,0,0,0,0,0,6.0451,6.0466,6.0613,6.0582,6.0585,6.0581,6.0592,6.0658,6.0693,6.0639,6.0638,6.065,6.0728,6.0754,6.0762,6.0864,6.0789,6.0794,6.0798,6.08,6.104,6.1042,0,0,0,0,0,0,6.0443,6.046,6.061,6.0616,6.0514,6.0587,6.0599,6.0635,6.0693,6.0699,6.0652,6.065,6.0745,6.0755,6.0765,6.087,6.0795,6.0801,6.0804,6.1037,6.104,6.1043,0,0,0,0,0,0,6.0438,6.0456,6.0606,6.0538,6.0557,6.0593,6.0634,6.0638,6.0664,6.0703,6.0709,6.0673,6.0743,6.0757,6.0833,6.0873,6.0804,6.0809,6.1034,6.1038,6.1042,6.1079,0,0,0,0,0,0,6.0433,6.0455,6.0488,6.0539,6.0561,6.0673,6.0636,6.0642,6.0675,6.0673,6.0724,6.073,6.0742,6.0824,6.0839,6.088,6.0814,6.1031,6.1036,6.1041,6.1074,6.1084,6.1092,0,0,0,0,0,6.0425,6.0493,6.049,6.0508,6.0603,6.0676,6.0688,6.0702,6.0679,6.0712,6.0737,6.0728,6.0866,6.0832,6.0849,6.0893,6.1028,6.1034,6.104,6.107,6.1082,6.1092,0,0,0,0,0,0,6.0443,6.0499,6.0497,6.0583,6.0625,6.0674,6.0716,6.0714,6.0762,6.0757,6.0772,6.0783,6.0861,6.0884,6.0845,6.0978,6.0944,6.0953,6.0961,6.0972,6.0981,6.0974,6.0819,0,0,0,0,0,6.0457,6.0512,6.0558,6.063,6.0651,6.068,6.0712,6.072,6.0763,6.078,6.0811,6.0852,6.0905,6.0939,6.099,6.1077,6.1089,6.1115,6.1124,6.1131,6.114,6.119,6.1203,6.1063,6.1063,6.1063,0,0,6.0486,6.0524,6.0558,6.0634,6.0668,6.0724,6.0695,6.0755,6.0797,6.0789,6.0864,6.0888,6.0935,6.1018,6.1055,6.1039,6.1181,6.1139,6.1144,6.1149,6.1198,6.1211,6.1223,6.1067,6.1067,6.1066,0,0,6.057,6.0603,6.0668,6.0703,6.0754,6.0773,6.0789,6.0839,6.0855,6.0931,6.0927,6.0976,6.1066,6.1101,6.113,6.1228,6.1222,6.1243,6.129,6.1339,6.135,6.1359,6.1397,6.141,6.1252,6.1252,6.1252,0,6.06,6.0686,6.0701,6.0763,6.0798,6.0794,6.086,6.0892,6.0957,6.098,6.0961,6.1077,6.1107,6.12,6.1224,6.1247,6.1265,6.1239,6.1347,6.1357,6.1366,6.1402,6.1416,6.1254,6.1254,6.1254,6.1253,0,6.0721,6.0781,6.0826,6.0892,6.0931,6.0994,6.1019,6.1056,6.1061,6.1082,6.116,6.1197,6.1257,6.1278,6.1282,6.1372,6.136,6.1344,6.131,6.1382,6.1416,6.143,6.1258,6.1257,6.1256,6.1256,0,0,6.0819,6.0893,6.091,6.0941,6.0998,6.1044,6.1107,6.1167,6.12,6.1244,6.1299,6.1376,6.1362,6.1395,6.1403,6.1445,6.1523,6.1424,6.1425,6.1443,6.1627,6.1641,6.1656,6.1519,6.1521,6.1524,6.1624,0,6.0909,6.1024,6.104,6.1141,6.1197,6.1195,6.1251,6.1291,6.1313,6.1363,6.1385,6.1441,6.1417,6.1438,6.1479,6.1505,6.1561,6.1498,6.157,6.1572,6.1561,6.1673,6.1688,6.178,6.1637,6.1639,6.164,0,6.1031,6.1082,6.1189,6.1241,6.1265,6.1315,6.1373,6.142,6.1466,6.1479,6.1517,6.152,6.1585,6.1547,6.1638,6.1595,6.1625,6.1642,6.1646,6.1655,6.1612,6.1688,6.181,6.1825,6.1661,6.1659,6.1658,0,6.1095,6.119,6.1267,6.1293,6.1354,6.139,6.1417,6.1461,6.1497,6.1546,6.1569,6.1625,6.1655,6.1698,6.1716,6.1686,6.1806,6.1769,6.1819,6.1819,6.1846,6.1845,6.1978,6.1861,6.1861,6.1861,6.1861,0,6.1196,6.1262,6.1297,6.1345,6.1419,6.1436,6.1509,6.1534,6.1574,6.1626,6.1626,6.1675,6.1694,6.1746,6.176,6.1834,6.1847,6.1859,6.1863,6.1861,6.186,6.1883,6.1878,6.1865,6.1864,6.1863,6.1862,0,6.1281,6.1306,6.1391,6.1443,6.1458,6.151,6.1555,6.1601,6.1622,6.1688,6.1704,6.1737,6.1798,6.182,6.1893,6.1902,6.199,6.1986,6.1975,6.1976,6.2026,6.2022,6.218,6.2203,6.207,6.2071,6.2072,0,6.1345,6.1396,6.1455,6.1491,6.152,6.1578,6.1615,6.1633,6.1672,6.173,6.1769,6.183,6.1881,6.1978,6.2008,6.2064,6.2064,6.2115,6.2072,6.207,6.2068,6.2066,6.2072,6.2124,6.2125,6.2126,6.2127,0,6.1457,6.1468,6.1522,6.1582,6.1627,6.1675,6.172,6.1749,6.1775,6.1818,6.1882,6.1921,6.1997,6.2059,6.2117,6.2143,6.2141,6.2141,6.2156,6.2156,6.2148,6.2156,6.2,6.2137,6.2136,6.2136,6.2135,6.2135,6.1535,6.1582,6.1632,6.1693,6.1729,6.1773,6.182,6.1847,6.1902,6.1967,6.1974,6.2043,6.2089,6.2167,6.2196,6.225,6.2236,6.2257,6.2263,6.2269,6.2274,6.2138,6.2261,6.226,6.226,6.226,6.226,0,6.165,6.1682,6.1738,6.1804,6.1852,6.1846,6.1896,6.1937,6.1999,6.2042,6.2093,6.2167,6.2227,6.2262,6.2321,6.2358,6.2358,6.2373,6.2372,6.2379,6.2282,6.2264,6.2372,6.2372,6.2372,6.2372,6.2372,6.2372,6.1715,6.1795,6.1812,6.191,6.1941,6.201,6.204,6.208,6.2116,6.2199,6.225,6.2273,6.2313,6.2376,6.2431,6.2439,6.2463,6.248,6.2487,6.2397,6.2385,6.2374,6.2358,6.2484,6.2484,6.258,6.2581,6.2581]}]]